Time,TemperatureF,DewpointF,PressureIn,WindDirection,WindDirectionDegrees,WindSpeedMPH,WindSpeedGustMPH,Humidity,HourlyPrecipIn,Conditions,Clouds,dailyrainin,SoftwareType,DateUTC
2013-06-25 00:01:00,64.4,63.0,29.99,ESE,113,0.0,2.0,96,0.00,,,0.33,weatherlink.com 1.10,2013-06-25 04:01:00,
2013-06-25 00:16:00,64.1,63.0,29.98,ESE,113,0.0,2.0,97,0.00,,,0.00,weatherlink.com 1.10,2013-06-25 04:16:00,
2013-06-25 00:31:00,64.1,63.0,29.98,ESE,113,1.0,3.0,97,0.00,,,0.00,weatherlink.com 1.10,2013-06-25 04:31:00,
2013-06-25 00:46:00,64.3,63.0,29.98,ESE,113,0.0,2.0,96,0.00,,,0.00,weatherlink.com 1.10,2013-06-25 04:46:00,
2013-06-25 01:01:00,64.1,63.0,29.97,ESE,113,1.0,2.0,96,0.00,,,0.00,weatherlink.com 1.10,2013-06-25 05:01:00,
2013-06-25 01:16:00,64.4,63.0,29.97,ESE,123,3.0,4.0,96,0.00,,,0.00,weatherlink.com 1.10,2013-06-25 05:16:00,
2013-06-25 01:31:00,64.5,63.0,29.97,SE,127,0.0,3.0,95,0.00,,,0.00,weatherlink.com 1.10,2013-06-25 05:31:00,
2013-06-25 01:46:00,63.9,63.0,29.96,ESE,123,1.0,3.0,95,0.00,,,0.00,weatherlink.com 1.10,2013-06-25 05:46:00,
2013-06-25 02:01:00,63.8,63.0,29.95,ESE,114,3.0,3.0,96,0.00,,,0.00,weatherlink.com 1.10,2013-06-25 06:01:00,
2013-06-25 02:16:00,64.0,63.0,29.95,ESE,114,0.0,3.0,96,0.00,,,0.00,weatherlink.com 1.10,2013-06-25 06:16:00,
2013-06-25 02:31:00,64.0,63.0,29.95,ESE,114,0.0,1.0,95,0.00,,,0.00,weatherlink.com 1.10,2013-06-25 06:31:00,
2013-06-25 02:46:00,63.6,62.0,29.95,ESE,114,0.0,1.0,95,0.00,,,0.00,weatherlink.com 1.10,2013-06-25 06:46:00,
2013-06-25 03:01:00,63.2,62.0,29.95,ESE,114,0.0,2.0,96,0.00,,,0.00,weatherlink.com 1.10,2013-06-25 07:01:00,
2013-06-25 03:16:00,62.8,62.0,29.95,ESE,114,0.0,0.0,96,0.00,,,0.00,weatherlink.com 1.10,2013-06-25 07:16:00,
2013-06-25 03:31:00,62.3,62.0,29.95,ESE,114,0.0,0.0,97,0.00,,,0.00,weatherlink.com 1.10,2013-06-25 07:31:00,
2013-06-25 03:46:00,62.0,61.0,29.95,ESE,114,0.0,0.0,97,0.00,,,0.00,weatherlink.com 1.10,2013-06-25 07:46:00,
2013-06-25 04:01:00,62.0,61.0,29.94,ESE,114,0.0,1.0,97,0.00,,,0.00,weatherlink.com 1.10,2013-06-25 08:01:00,
2013-06-25 04:16:00,62.0,62.0,29.94,ESE,114,0.0,1.0,98,0.00,,,0.00,weatherlink.com 1.10,2013-06-25 08:16:00,
2013-06-25 04:31:00,62.0,62.0,29.94,ESE,114,0.0,1.0,98,0.00,,,0.00,weatherlink.com 1.10,2013-06-25 08:31:00,
2013-06-25 04:46:00,62.0,62.0,29.94,ESE,114,0.0,1.0,98,0.00,,,0.00,weatherlink.com 1.10,2013-06-25 08:46:00,
2013-06-25 05:01:00,62.0,62.0,29.94,ESE,114,0.0,1.0,98,0.00,,,0.00,weatherlink.com 1.10,2013-06-25 09:01:00,
2013-06-25 05:16:00,62.1,62.0,29.94,ESE,114,1.0,1.0,98,0.00,,,0.00,weatherlink.com 1.10,2013-06-25 09:16:00,
2013-06-25 05:31:00,62.3,62.0,29.94,ESE,114,0.0,1.0,97,0.00,,,0.00,weatherlink.com 1.10,2013-06-25 09:31:00,
2013-06-25 05:46:00,62.0,61.0,29.94,ESE,114,0.0,0.0,97,0.00,,,0.00,weatherlink.com 1.10,2013-06-25 09:46:00,
2013-06-25 06:01:00,61.9,61.0,29.94,ESE,114,0.0,0.0,98,0.00,,,0.00,weatherlink.com 1.10,2013-06-25 10:01:00,
2013-06-25 06:16:00,62.1,62.0,29.94,ESE,114,1.0,1.0,98,0.00,,,0.00,weatherlink.com 1.10,2013-06-25 10:16:00,
2013-06-25 06:31:00,63.1,63.0,29.93,ESE,114,0.0,1.0,98,0.00,,,0.00,weatherlink.com 1.10,2013-06-25 10:31:00,
2013-06-25 06:46:00,64.1,63.0,29.92,ESE,114,1.0,2.0,97,0.00,,,0.00,weatherlink.com 1.10,2013-06-25 10:46:00,
2013-06-25 07:01:00,65.1,64.0,29.92,ESE,114,2.0,2.0,97,0.00,,,0.00,weatherlink.com 1.10,2013-06-25 11:01:00,
2013-06-25 07:16:00,66.0,65.0,29.92,ESE,114,0.0,1.0,96,0.00,,,0.00,weatherlink.com 1.10,2013-06-25 11:16:00,
2013-06-25 07:32:00,66.6,66.0,29.92,ESE,114,0.0,1.0,96,0.00,,,0.00,weatherlink.com 1.10,2013-06-25 11:32:00,
2013-06-25 07:47:00,66.9,66.0,29.92,SE,124,1.0,3.0,96,0.00,,,0.00,weatherlink.com 1.10,2013-06-25 11:47:00,
2013-06-25 08:02:00,67.6,66.0,29.92,ESE,123,1.0,3.0,93,0.00,,,0.00,weatherlink.com 1.10,2013-06-25 12:02:00,
2013-06-25 08:17:00,68.8,66.0,29.92,ESE,113,0.0,4.0,91,0.00,,,0.00,weatherlink.com 1.10,2013-06-25 12:17:00,
2013-06-25 08:32:00,69.9,67.0,29.92,ESE,113,0.0,1.0,90,0.00,,,0.00,weatherlink.com 1.10,2013-06-25 12:32:00,
2013-06-25 08:47:00,71.2,68.0,29.92,ESE,113,0.0,1.0,89,0.00,,,0.00,weatherlink.com 1.10,2013-06-25 12:47:00,
2013-06-25 09:02:00,72.3,68.0,29.91,ESE,113,0.0,2.0,87,0.00,,,0.00,weatherlink.com 1.10,2013-06-25 13:02:00,
2013-06-25 09:17:00,73.5,69.0,29.91,ESE,113,0.0,2.0,85,0.01,,,0.01,weatherlink.com 1.10,2013-06-25 13:17:00,
2013-06-25 09:32:00,75.4,70.0,29.91,SE,130,0.0,2.0,84,0.01,,,0.01,weatherlink.com 1.10,2013-06-25 13:32:00,
2013-06-25 09:47:00,76.4,71.0,29.91,SW,227,0.0,2.0,82,0.01,,,0.01,weatherlink.com 1.10,2013-06-25 13:47:00,
2013-06-25 10:02:00,76.9,71.0,29.91,ESE,114,0.0,3.0,81,0.01,,,0.01,weatherlink.com 1.10,2013-06-25 14:02:00,
2013-06-25 10:17:00,77.0,70.0,29.91,SE,137,1.0,3.0,80,0.00,,,0.01,weatherlink.com 1.10,2013-06-25 14:17:00,
2013-06-25 10:32:00,77.6,72.0,29.91,SE,132,1.0,5.0,82,0.00,,,0.01,weatherlink.com 1.10,2013-06-25 14:32:00,
2013-06-25 10:47:00,79.3,71.0,29.90,ESE,121,0.0,3.0,75,0.00,,,0.01,weatherlink.com 1.10,2013-06-25 14:47:00,
2013-06-25 11:02:00,80.2,71.0,29.90,SW,223,0.0,6.0,74,0.00,,,0.01,weatherlink.com 1.10,2013-06-25 15:02:00,
2013-06-25 11:17:00,80.1,72.0,29.89,West,278,0.0,3.0,76,0.00,,,0.01,weatherlink.com 1.10,2013-06-25 15:17:00,
2013-06-25 11:32:00,80.9,73.0,29.89,WNW,300,3.0,11.0,77,0.00,,,0.01,weatherlink.com 1.10,2013-06-25 15:32:00,
2013-06-25 11:47:00,79.7,72.0,29.89,WSW,254,0.0,7.0,76,0.00,,,0.01,weatherlink.com 1.10,2013-06-25 15:47:00,
2013-06-25 12:02:00,79.1,72.0,29.89,SW,233,2.0,4.0,78,0.00,,,0.01,weatherlink.com 1.10,2013-06-25 16:02:00,
2013-06-25 12:17:00,79.2,72.0,29.88,WSW,245,0.0,3.0,79,0.00,,,0.01,weatherlink.com 1.10,2013-06-25 16:17:00,
2013-06-25 12:32:00,80.4,72.0,29.87,West,261,3.0,3.0,75,0.00,,,0.01,weatherlink.com 1.10,2013-06-25 16:32:00,
2013-06-25 12:48:00,79.9,72.0,29.86,WSW,246,0.0,4.0,76,0.00,,,0.01,weatherlink.com 1.10,2013-06-25 16:48:00,
2013-06-25 13:03:00,79.3,72.0,29.86,WSW,252,2.0,5.0,78,0.00,,,0.01,weatherlink.com 1.10,2013-06-25 17:03:00,
2013-06-25 13:33:00,73.9,72.0,29.84,West,273,0.0,7.0,93,0.21,,,0.22,weatherlink.com 1.10,2013-06-25 17:33:00,
2013-06-25 13:48:00,74.8,72.0,29.83,ESE,105,2.0,4.0,91,0.21,,,0.22,weatherlink.com 1.10,2013-06-25 17:48:00,
2013-06-25 14:03:00,76.1,72.0,29.83,SE,125,0.0,1.0,87,0.21,,,0.22,weatherlink.com 1.10,2013-06-25 18:03:00,
2013-06-25 14:18:00,77.2,73.0,29.83,SE,125,0.0,0.0,87,0.10,,,0.22,weatherlink.com 1.10,2013-06-25 18:18:00,
2013-06-25 14:33:00,76.7,73.0,29.83,SE,125,0.0,0.0,89,0.01,,,0.23,weatherlink.com 1.10,2013-06-25 18:33:00,
2013-06-25 16:52:00,72.2,71.0,29.82,West,280,1.0,4.0,97,0.01,,,0.53,weatherlink.com 1.10,2013-06-25 20:52:00,
2013-06-25 17:03:00,73.2,72.0,29.82,West,271,2.0,4.0,96,0.01,,,0.53,weatherlink.com 1.10,2013-06-25 21:03:00,
2013-06-25 17:18:00,73.4,72.0,29.81,WNW,288,0.0,5.0,94,0.01,,,0.53,weatherlink.com 1.10,2013-06-25 21:18:00,
2013-06-25 17:33:00,72.6,71.0,29.81,West,267,1.0,5.0,94,0.04,,,0.56,weatherlink.com 1.10,2013-06-25 21:33:00,
2013-06-25 17:48:00,72.2,71.0,29.80,West,272,4.0,6.0,95,0.06,,,0.59,weatherlink.com 1.10,2013-06-25 21:48:00,
2013-06-25 18:03:00,73.0,72.0,29.80,WNW,284,0.0,6.0,96,0.06,,,0.59,weatherlink.com 1.10,2013-06-25 22:03:00,
2013-06-25 18:18:00,72.9,71.0,29.80,West,263,0.0,6.0,95,0.06,,,0.59,weatherlink.com 1.10,2013-06-25 22:18:00,
2013-06-25 18:33:00,72.3,71.0,29.80,West,271,0.0,6.0,94,0.03,,,0.59,weatherlink.com 1.10,2013-06-25 22:33:00,
2013-06-25 18:48:00,72.6,71.0,29.80,West,281,0.0,5.0,95,0.00,,,0.59,weatherlink.com 1.10,2013-06-25 22:48:00,
2013-06-25 19:03:00,72.8,71.0,29.81,WSW,238,1.0,4.0,94,0.00,,,0.59,weatherlink.com 1.10,2013-06-25 23:03:00,
2013-06-25 19:18:00,72.8,71.0,29.81,WNW,298,0.0,2.0,94,0.00,,,0.59,weatherlink.com 1.10,2013-06-25 23:18:00,
2013-06-25 19:33:00,72.7,71.0,29.81,WNW,298,0.0,1.0,95,0.00,,,0.59,weatherlink.com 1.10,2013-06-25 23:33:00,
2013-06-25 19:48:00,72.5,71.0,29.82,WNW,298,0.0,0.0,95,0.00,,,0.59,weatherlink.com 1.10,2013-06-25 23:48:00,
2013-06-25 20:03:00,72.3,71.0,29.82,WNW,298,0.0,0.0,95,0.00,,,0.59,weatherlink.com 1.10,2013-06-26 00:03:00,
2013-06-25 20:18:00,72.0,71.0,29.82,WNW,298,0.0,0.0,95,0.00,,,0.59,weatherlink.com 1.10,2013-06-26 00:18:00,
2013-06-25 20:33:00,71.7,71.0,29.81,WNW,298,0.0,0.0,96,0.00,,,0.59,weatherlink.com 1.10,2013-06-26 00:33:00,
2013-06-25 20:48:00,71.0,70.0,29.81,WNW,298,0.0,0.0,96,0.00,,,0.59,weatherlink.com 1.10,2013-06-26 00:48:00,
2013-06-25 21:03:00,70.0,69.0,29.81,WNW,298,0.0,0.0,96,0.00,,,0.59,weatherlink.com 1.10,2013-06-26 01:03:00,
2013-06-25 21:18:00,69.7,69.0,29.81,WNW,298,0.0,0.0,97,0.00,,,0.59,weatherlink.com 1.10,2013-06-26 01:18:00,
2013-06-25 21:33:00,69.1,68.0,29.81,WNW,298,0.0,0.0,97,0.00,,,0.59,weatherlink.com 1.10,2013-06-26 01:33:00,
2013-06-25 21:48:00,68.9,68.0,29.81,WNW,298,0.0,0.0,97,0.00,,,0.59,weatherlink.com 1.10,2013-06-26 01:48:00,
2013-06-25 22:03:00,68.7,68.0,29.81,WNW,298,0.0,0.0,97,0.00,,,0.59,weatherlink.com 1.10,2013-06-26 02:03:00,
2013-06-25 22:19:00,68.4,68.0,29.82,WNW,298,0.0,0.0,97,0.00,,,0.59,weatherlink.com 1.10,2013-06-26 02:19:00,
2013-06-25 22:34:00,69.1,69.0,29.81,WNW,298,0.0,0.0,98,0.00,,,0.59,weatherlink.com 1.10,2013-06-26 02:34:00,
2013-06-25 22:49:00,69.6,69.0,29.81,WNW,298,0.0,0.0,98,0.00,,,0.59,weatherlink.com 1.10,2013-06-26 02:49:00,
2013-06-25 23:04:00,69.3,69.0,29.81,NW,317,1.0,1.0,98,0.00,,,0.59,weatherlink.com 1.10,2013-06-26 03:04:00,
2013-06-25 23:19:00,68.9,68.0,29.81,NNE,25,0.0,1.0,98,0.00,,,0.59,weatherlink.com 1.10,2013-06-26 03:19:00,
2013-06-25 23:34:00,68.8,68.0,29.81,West,272,1.0,8.0,98,0.13,,,0.72,weatherlink.com 1.10,2013-06-26 03:34:00,
2013-06-25 23:49:00,68.8,68.0,29.81,West,277,0.0,2.0,98,0.14,,,0.73,weatherlink.com 1.10,2013-06-26 03:49:00,